Location: São Paulo
(23.5507°S, 46.6334°W)
Time: 10:45:05
(UTC-03:00)

Transit 4A - Pass Details

Date: 17 February 2026
Orbit: 864 x 977 km, 66.8° (Epoch: 11 March)

Event Time Altitude Azimuth Distance (km) Brightness Sun altitude
Rises 13:34:01 0° 25° (NNE) 3,659 11.0 69.0°
Reaches altitude 10° 13:38:13 10° 51° (NE) 2,716 10.4 68.1°
Maximum altitude 13:40:54 13° 76° (ENE) 2,503 10.1 67.6°
Drops below altitude 10° 13:43:35 10° 102° (ESE) 2,712 10.2 67.0°
Sets 13:47:45 0° 128° (SE) 3,648 10.8 66.2°
